This demonstration page uses our WeatherBlox Daily Observations layout. Learn more.

Left ArrowRight Arrow

30.21309, -93.2044

Hourly Observations for October 10, 2015

Temp ( °F °C ) Dew Point ( °F °C ) Humidity (%) Winds ( mph kmh ) Pressure ( in mb ) Visibility ( mi km ) Precip ( " mm )
12:15 am 00:15 Clear 76 24.4 70 21 81 81 WSW 6 9 30.06 1018 10 16 0.00 0.00
12:35 am 00:35 Clear 76 24.3 70 21 82 82 W 6 9 30.06 1018 10 16 0.00 0.00
12:55 am 00:55 Clear 75 24 70 21.1 84 84 W 6 9 30.06 1018 10 16 0.00 0.00
1:15 am 01:15 Clear 75 24 70 21.1 84 84 W 6 9 30.06 1018 10 16 0.00 0.00
1:35 am 01:35 Clear 74 23.6 70 21 85 85 WNW 6 9 30.06 1018 10 16 0.00 0.00
1:55 am 01:55 Clear 74 23.5 70 21.2 87 87 NW 5 7 30.06 1018 10 16 0.00 0.00
2:15 am 02:15 Clear 73 22.6 69 20.7 89 89 NNW 5 7 30.06 1018 10 16 0.00 0.00
2:35 am 02:35 Clear 72 22.3 68 20.2 88 88 N 9 15 30.06 1018 10 16 0.00 0.00
2:55 am 02:55 Clear 72 22 68 19.9 88 88 N 9 15 30.06 1018 10 16 0.00 0.00
3:15 am 03:15 Clear 71 21.6 67 19.6 88 88 NNE 6 9 30.06 1018 10 16 0.00 0.00
3:35 am 03:35 Clear 71 21.5 67 19.5 88 88 N 3 6 30.06 1018 10 16 0.00 0.00
3:55 am 03:55 Clear 70 21.1 66 19.1 88 88 NNE 9 15 30.06 1018 10 16 0.00 0.00
4:15 am 04:15 Clear 70 21 66 18.8 87 87 NNE 7 11 30.06 1018 10 16 0.00 0.00
4:35 am 04:35 Clear 69 20.6 65 18.5 88 88 NNE 7 11 30.06 1018 10 16 0.00 0.00
4:55 am 04:55 Clear 69 20.3 65 18.5 89 89 NNE 6 9 30.06 1018 10 16 0.00 0.00
5:15 am 05:15 Clear 68 20.2 65 18.2 88 88 NNE 7 11 30.06 1018 10 16 0.00 0.00
6:00 am 06:00 Mostly Clear 68 20 64 18 88 88 N 8 13 30.09 1019 10 16 0.00 0.00
6:50 am 06:50 Mostly Clear 66 19 64 18 94 94 N 8 13 30.09 1019 10 16 0.00 0.00
7:50 am 07:50 Mostly Sunny 66 19 63 17 88 88 N 8 13 30.12 1020 10 16 0.00 0.00
8:50 am 08:50 Mostly Sunny 68 20 63 17 83 83 N 8 13 30.12 1020 10 16 0.00 0.00
9:50 am 09:50 Partly Cloudy 70 21 64 18 83 83 N 10 17 30.15 1021 10 16 0.00 0.00
11:50 am 11:50 Mostly Sunny 77 25 63 17 61 61 N 10 17 30.12 1020 10 16 0.00 0.00
12:50 pm 12:50 Mostly Sunny 81 27 64 18 58 58 NNE 9 15 30.12 1020 10 16 0.00 0.00
1:50 pm 13:50 Mostly Sunny 82 28 63 17 51 51 NNW 13 20 30.06 1018 10 16 0.00 0.00
2:50 pm 14:50 Mostly Sunny 82 28 61 16 48 48 NNW 8 13 30.03 1017 10 16 0.00 0.00
3:50 pm 15:50 Mostly Sunny 84 29 55 13 37 37 NW 8 13 30.03 1017 10 16 0.00 0.00
6:55 pm 18:55 Mostly Clear 75 24 57 14 54 54 NNW 5 7 30.03 1017 10 16 0.00 0.00
7:55 pm 19:55 Mostly Clear 72 22 57 14 61 61 NNE 3 6 30.03 1017 10 16 0.00 0.00
8:50 pm 20:50 Mostly Clear 70 21 57 14 64 64 Calm 30.06 1018 10 16 0.00 0.00
9:50 pm 21:50 Mostly Clear 68 20 57 14 69 69 Calm 30.06 1018 10 16 0.00 0.00
10:15 pm 22:15 Clear 67 19.3 56 13.5 69 69 NNE 3 6 30.06 1018 10 16 0.00 0.00
10:35 pm 22:35 Clear 67 19.3 56 13.5 69 69 NNE 5 7 30.06 1018 10 16 0.00 0.00
10:55 pm 22:55 Clear 67 19.3 56 13.4 69 69 N 3 6 30.06 1018 10 16 0.00 0.00
11:15 pm 23:15 Clear 66 18.7 56 13.5 72 72 NNE 3 6 30.06 1018 10 16 0.00 0.00
11:35 pm 23:35 Clear 65 18.3 56 13.2 72 72 NNE 3 6 30.06 1018 10 16 0.00 0.00
11:55 pm 23:55 Clear 65 18.3 56 13.5 74 74 ENE 3 6 30.06 1018 10 16 0.00 0.00

Powered by AerisWeather